map of PIO home
PIO - Airport
Location
City:  Pisco, Ica, Perú
Name:Capitán FAP Renán Elías Olivera Airport
ICAO:SPSO
IATA:PIO

Details
Type:Airport (Aerodrome, Airfield)
Use:Public/Civil, Military, International (customs port of entry)
Latitude:13°44'41"S (-13.744799)
Longitude:76°13'13"W (-76.220410)
Elevation:39 ft (12 m)
Variation:2.28°W (WMM2015v2 magnetic declination)
-0.18° annual change
Runways:1
Longest:9908 × 148 ft (3020 × 45 m), paved

Time
Time Zone:UTC-5
Local Time:

Weather
METAR:SPSO 041400Z 34003KT 270V020 9999 FEW011 BKN190 26/23 Q1011 RMK BIRD HAZARD RWY 22/04 PP000
TAF:SPSO 041100Z 0412/0512 20005KT 8000 SCT010 BKN150 TX30/0419Z TN22/0510Z
TEMPO 0412/0413 4000 BR BKN012
BECMG 0414/0416 30010KT CAVOK
BECMG 0419/0421 22020KT
BECMG 0502/0504 21008KT

Related Locations
Nearby:
Farthest:REP: 12447 mi / 20032 km
Siem Reap [Angkor Intl], 17, KH

Find:

   beyond  
but within

Other Information
Maps:
NOTAMs:
Links:
Sources:

  
  • flag of Perú
  • flag of Ica
  

Sectional Chart

Flight Planning
at skyvector.com

Satellite Image

Google Maps Satellite view

 

Copyright © 2004-2019 Karl L. Swartz. All rights reserved.
The Great Circle Mapper name and logo are trademarks of the Great Circle Mapper.
All other trademarks mentioned herein belong to their respective owners.
Please see credits for attibutions and further copyright information.

  Follow gcmap on Facebook Follow gcmap on Twitter GCmap on LinkedIn

hCard Microformat

Geo Microformat